#timestamp,LO_Frequency,Hit,StdDev 
1538481615.8,286047000.7,N
1538481635.7,286046998.1,N
1538481655.5,286046999.0,N
1538481675.4,286047000.2,N
1538481695.2,286047004.0,N
1538481715.0,286047000.3,N
1538481715.9,286047000.3,N
1538481735.8,286047002.8,N
1538481755.6,286047000.8,N
1538481775.4,286046999.4,N
1538481795.3,286046999.8,N
1538481815.1,286047000.5,N
1538481835.8,286047002.2,N
1538481855.7,286047002.6,N
1538481875.5,286047002.6,N
1538481895.4,286047002.0,N
1538481915.2,286047002.7,N
1538481935.0,286047002.5,N
1538481935.9,286047002.5,N
1538481955.8,286047002.4,N
1538481975.6,286047000.0,N
1538481995.4,286047004.2,N
1538482015.3,286047004.7,N
1538482035.1,286047007.2,Y
1538482055.9,286047001.9,P
1538482075.7,286046998.3,P
1538482095.5,286047001.5,N
1538482115.4,286047005.4,Y
1538482135.2,286047005.8,P
1538482155.0,286047007.3,N
1538482155.9,286047007.3,N
1538482175.8,286047001.7,N
1538482195.6,286047003.9,N
1538482215.5,286047002.0,N
1538482235.3,286047004.3,N
1538482255.1,286047000.7,N
1538482275.9,286046999.3,N
1538482295.7,286046998.6,N
1538482315.5,286047001.0,N
1538482335.4,286046999.8,N
1538482355.2,286047000.7,N
1538482375.1,286047000.2,N
1538482376.0,286047000.2,N
1538482395.8,286046998.4,N
1538482415.6,286046999.0,N
1538482435.5,286046998.2,N
1538482455.3,286047000.2,N
1538482475.1,286047000.7,N
1538482495.9,286047000.8,N
1538482515.7,286046999.3,N
1538482535.6,286047001.0,N
1538482555.4,286046998.9,N
1538482575.2,286046998.5,N
1538482595.1,286046997.9,N
1538482596.0,286046997.9,N
1538482615.8,286046996.4,N
1538482635.6,286046994.7,N
1538482655.5,286046994.8,N
1538482675.3,286046993.5,N
1538482695.1,286046993.8,N
1538482715.9,286046991.7,N
1538482735.7,286046993.5,N
1538482755.6,286046997.3,N
1538482775.4,286046998.0,N
1538482795.2,286046995.0,N
1538482815.1,286046994.3,N
1538482816.0,286046994.3,N
1538482835.8,286046993.6,N
1538482855.6,286046994.8,N
1538482875.5,286046994.8,N
1538482895.3,286046990.2,Y
1538482915.2,286046993.9,P
1538482935.9,286046993.7,P
1538482955.7,286046995.7,N
1538482975.6,286046997.5,N
1538482995.4,286046996.2,N
1538483015.2,286047000.0,N
1538483035.1,286046998.3,N
1538483036.0,286046998.3,N
1538483055.8,286046998.2,N
1538483075.7,286046999.1,N
1538483095.5,286046997.4,N
1538483115.3,286046994.4,Y
1538483135.2,286046998.8,P
1538483155.0,286046997.3,P
1538483155.9,286046997.3,P
1538483175.8,286046999.3,N
1538483195.6,286046996.7,Y
1538483215.4,286046997.1,P
1538483235.3,286046998.8,N
1538483255.1,286046998.5,N
1538483275.9,286047002.0,Y
1538483295.7,286047003.9,P
1538483315.5,286047000.1,N
1538483335.4,286047000.5,N
1538483355.2,286047000.4,N
1538483375.5,286047001.0,N
1538483395.3,286047002.8,N
1538483415.2,286047001.8,N
1538483435.0,286047001.8,N
1538483435.9,286047001.8,N
1538483455.8,286047005.2,Y
1538483475.6,286047005.6,P
1538483495.4,286047001.3,N
1538483515.3,286047001.8,N
1538483535.1,286046999.8,N
1538483555.8,286047001.7,N
1538483575.7,286047003.9,N
1538483595.5,286047005.4,Y
1538483615.4,286047000.7,P
1538483635.2,286046996.8,P
1538483655.0,286046999.0,N
1538483655.9,286046999.0,N
1538483675.8,286047002.7,N
1538483695.1,286046998.9,N
1538483696.0,286046998.9,N
1538483715.8,286046996.9,N
1538483735.7,286046996.8,N
1538483755.5,286047000.7,N
1538483775.3,286046997.3,N
1538483795.2,286046996.7,N
1538483815.9,286047001.2,N
1538483835.7,286046997.8,N
1538483855.6,286046997.4,N
1538483875.4,286046996.9,N
1538483895.3,286046999.8,N
1538483915.1,286047003.7,N
1538483916.0,286047003.7,N
1538483935.8,286047002.1,N
1538483955.7,286047001.3,N
1538483975.5,286047000.3,N
1538483995.3,286047000.0,N
1538484015.2,286046999.6,N
1538484035.0,286046995.7,N
1538484035.9,286046995.7,N
1538484055.8,286046992.2,Y
1538484075.6,286046991.9,P
1538484095.4,286046998.0,N
1538484115.3,286046999.0,N
1538484135.1,286046999.5,N
1538484155.8,286046996.8,N
1538484175.7,286046996.9,N
1538484195.5,286046998.0,N
1538484215.4,286046995.3,N
1538484235.2,286046997.4,N
1538484255.0,286046997.9,N
1538484255.9,286046997.9,N
1538484275.8,286046999.1,N
1538484295.6,286047000.9,N
1538484315.5,286047001.2,N
1538484335.3,286047001.6,N
1538484355.1,286047001.9,N
1538484375.9,286046997.1,N
1538484395.7,286046997.4,N
1538484415.5,286046996.9,N
1538484435.4,286047000.7,N
1538484455.2,286047002.7,N
1538484475.0,286047000.2,N
1538484476.0,286047000.2,N
1538484495.8,286047000.8,N
1538484515.6,286046998.8,N
1538484535.5,286047001.2,N
1538484555.3,286047000.5,N
1538484575.1,286047001.1,N
1538484595.9,286046998.3,N
1538484615.7,286046999.9,N
1538484635.6,286047002.4,N
1538484655.4,286047003.4,N
1538484675.2,286047001.7,N
1538484695.1,286047002.6,N
1538484696.0,286047002.6,N
1538484715.8,286047000.1,N
1538484735.6,286047000.4,N
1538484755.5,286047001.0,N
1538484775.3,286046997.5,N
1538484795.2,286046998.0,N
1538484815.9,286046996.1,N
1538484835.7,286046992.5,Y
1538484855.6,286046994.4,P
1538484875.4,286046995.3,N
1538484895.2,286046997.6,N
1538484915.1,286046997.4,N
1538484916.0,286046997.4,N
1538484935.8,286046999.2,N
1538484955.7,286046995.8,N
1538484975.5,286046997.0,N
1538484995.3,286047000.7,N
1538485015.2,286046999.1,N
1538485035.0,286047001.1,N
1538485035.9,286047001.1,N
1538485055.8,286046999.9,N
1538485075.6,286046999.8,N
1538485095.4,286047001.8,N
1538485115.3,286047002.9,N
1538485135.9,286047002.8,N
1538485155.7,286047001.4,N
1538485175.5,286046999.8,N
1538485195.6,286047000.5,N
